Hyannis, MA

10:32 AM EST on November 12, 2019 (GMT -0500)
Barnstable Municipal-Boardman-Polando Field

Weather History for KHYA - October, 2019

Change the Weather History Date:

Sunday, October 20, 2019

  Actual Average Record
Temperature  
Mean Temperature 48 °F -  
Max Temperature 61 °F 59 °F 75 °F (1947)
Min Temperature 34 °F 42 °F 23 °F (1970)
Degree Days  
Heating Degree Days 18    
Moisture  
Dew Point 43 °F    
Average Humidity 78    
Maximum Humidity 90    
Minimum Humidity 53    
Precipitation  
Precipitation 0.02 in - - ()
Sea Level Pressure  
Sea Level Pressure 30.06 in    
Wind  
Wind Speed 2 mph ()    
Max Wind Speed 10 mph    
Max Gust Speed -    
Visibility 9.9 miles    
Events Rain    
Averages and records for this station are not official NWS values.
T = Trace of Precipitation, MM = Missing Value Source: Averaged Metar Reports

Daily Weather History Graph

Daily Weather History Graph

Search for Another Location

Airport or City:

Astronomy

Oct. 20, 2019 Rise Set
Actual Time 6:58 AM EDT 5:52 PM EDT
Civil Twilight 6:30 AM EDT 6:20 PM EDT
Nautical Twilight 5:58 AM EDT 6:53 PM EDT
Astronomical Twilight 5:25 AM EDT 7:25 PM EDT
Moon 10:54 PM EDT (10/20) 1:27 PM EDT (10/20)
Length of Visible Light 11h 50m
Length of Day
10h 53m
Waning Gibbous, 59% of the Moon is Illuminated
Oct 20
Waning Gibbous
Oct 21
Last Quarter
Oct 27
New
Nov 4
First Quarter
Nov 12
Full

Hourly Weather History & Observations

Time (EDT) Temp. Dew Point Humidity Pressure Visibility Wind Dir Wind Speed Gust Speed Precip Events Conditions
12:56 AM 37.0 °F 34.0 °F 89% 30.05 in 10.0 mi Calm Calm - N/A   Clear
1:56 AM 37.0 °F 33.1 °F 86% 30.04 in 10.0 mi Calm Calm - N/A   Unknown
2:56 AM 36.0 °F 32.0 °F 86% 30.04 in 10.0 mi Calm Calm - N/A   Clear
3:56 AM 35.1 °F 32.0 °F 89% 30.05 in 10.0 mi Calm Calm - N/A   Clear
4:56 AM 34.0 °F 30.9 °F 89% 30.06 in 10.0 mi Calm Calm - N/A   Clear
5:56 AM 34.0 °F 30.9 °F 89% 30.06 in 10.0 mi Calm Calm - N/A   Clear
6:56 AM 34.0 °F 30.9 °F 89% 30.07 in 10.0 mi Calm Calm - N/A   Clear
7:56 AM 37.9 °F 34.0 °F 86% 30.07 in 10.0 mi Calm Calm - N/A   Clear
8:56 AM 51.1 °F 46.0 °F 83% 30.09 in 10.0 mi Calm Calm - N/A   Clear
9:56 AM 55.0 °F 48.9 °F 80% 30.09 in 10.0 mi Variable 3.5 mph - N/A   Clear
10:56 AM 59.0 °F 48.0 °F 67% 30.10 in 10.0 mi SSE 6.9 mph - N/A   Clear
11:56 AM 60.1 °F 46.9 °F 62% 30.09 in 10.0 mi South 10.4 mph - N/A   Clear
12:56 PM 61.0 °F 46.0 °F 58% 30.08 in 10.0 mi SSW 6.9 mph - N/A   Clear
1:56 PM 60.1 °F 43.0 °F 53% 30.07 in 10.0 mi SSE 6.9 mph - N/A   Clear
2:56 PM 59.0 °F 44.1 °F 58% 30.07 in 10.0 mi SSE 5.8 mph - N/A   Clear
3:56 PM 57.9 °F 46.0 °F 65% 30.06 in 10.0 mi ESE 4.6 mph - N/A   Clear
4:56 PM 55.9 °F 46.9 °F 72% 30.06 in 10.0 mi East 3.5 mph - N/A   Clear
5:56 PM 55.0 °F 46.9 °F 74% 30.06 in 10.0 mi Calm Calm - N/A   Clear
6:56 PM 54.0 °F 46.9 °F 77% 30.05 in 10.0 mi ESE 3.5 mph - N/A   Partly Cloudy
7:56 PM 55.0 °F 46.9 °F 74% 30.04 in 10.0 mi ESE 4.6 mph - N/A   Scattered Clouds
8:56 PM 55.0 °F 46.9 °F 74% 30.04 in 10.0 mi ESE 4.6 mph - N/A   Overcast
9:56 PM 54.0 °F 50.0 °F 86% 30.03 in 10.0 mi Calm Calm - 0.00 in Rain Light Rain
10:27 PM 54.0 °F 50.0 °F 86% 30.03 in 10.0 mi Calm Calm - 0.00 in Rain Light Rain
10:56 PM 54.0 °F 51.1 °F 90% 30.03 in 10.0 mi ENE 3.5 mph - 0.01 in Rain Light Rain
11:10 PM 54.0 °F 50.0 °F 86% 30.03 in 10.0 mi Calm Calm - 0.00 in   Overcast
11:56 PM 54.0 °F 51.1 °F 90% 30.03 in 8.0 mi NNE 3.5 mph - 0.01 in Rain Light Rain